TimeCDT,TemperatureF,Dew PointF,Humidity,Sea Level PressureIn,VisibilityMPH,Wind Direction,Wind SpeedMPH,Gust SpeedMPH,PrecipitationIn,Events,Conditions,WindDirDegrees,DateUTC
12:55 AM,45.0,30.9,58,30.04,10.0,East,13.8,-,N/A,,Overcast,80,2012-11-03 05:55:00
1:55 AM,44.1,30.0,58,30.03,10.0,ENE,12.7,19.6,N/A,,Overcast,70,2012-11-03 06:55:00
2:55 AM,44.1,30.0,58,30.04,10.0,ENE,8.1,-,N/A,,Overcast,70,2012-11-03 07:55:00
3:55 AM,43.0,30.0,60,30.03,10.0,ENE,11.5,-,N/A,,Mostly Cloudy,70,2012-11-03 08:55:00
4:55 AM,43.0,30.0,60,30.06,10.0,NE,8.1,-,N/A,,Mostly Cloudy,50,2012-11-03 09:55:00
5:55 AM,41.0,28.9,62,30.07,10.0,NE,9.2,-,N/A,,Partly Cloudy,50,2012-11-03 10:55:00
6:55 AM,39.9,28.9,65,30.08,10.0,ENE,9.2,-,N/A,,Mostly Cloudy,60,2012-11-03 11:55:00
7:55 AM,39.9,30.0,68,30.10,10.0,NE,9.2,-,N/A,,Mostly Cloudy,50,2012-11-03 12:55:00
8:55 AM,42.1,33.1,70,30.14,10.0,NE,10.4,-,N/A,,Mostly Cloudy,40,2012-11-03 13:55:00
9:55 AM,43.0,34.0,71,30.15,10.0,NE,10.4,-,N/A,,Mostly Cloudy,50,2012-11-03 14:55:00
10:55 AM,46.0,35.1,66,30.16,10.0,NE,13.8,-,N/A,,Clear,50,2012-11-03 15:55:00
11:55 AM,48.0,36.0,63,30.17,10.0,East,6.9,-,N/A,,Clear,80,2012-11-03 16:55:00
12:55 PM,50.0,36.0,59,30.17,10.0,NNE,8.1,-,N/A,,Clear,20,2012-11-03 17:55:00
1:55 PM,52.0,37.0,57,30.16,10.0,Variable,6.9,-,N/A,,Clear,0,2012-11-03 18:55:00
2:55 PM,53.1,36.0,52,30.17,10.0,North,9.2,-,N/A,,Clear,360,2012-11-03 19:55:00
3:55 PM,53.1,36.0,52,30.17,10.0,NE,6.9,-,N/A,,Clear,50,2012-11-03 20:55:00
4:55 PM,52.0,35.1,53,30.17,10.0,NNE,8.1,-,N/A,,Clear,20,2012-11-03 21:55:00
5:55 PM,46.0,34.0,63,30.19,10.0,NNE,4.6,-,N/A,,Clear,20,2012-11-03 22:55:00
6:55 PM,44.1,33.1,65,30.20,10.0,Calm,Calm,-,N/A,,Clear,0,2012-11-03 23:55:00
7:55 PM,37.0,32.0,82,30.22,10.0,Calm,Calm,-,N/A,,Clear,0,2012-11-04 00:55:00
8:55 PM,39.0,32.0,76,30.22,10.0,NE,3.5,-,N/A,,Clear,40,2012-11-04 01:55:00
9:55 PM,37.9,30.9,76,30.22,10.0,Calm,Calm,-,N/A,,Clear,0,2012-11-04 02:55:00
10:55 PM,36.0,30.0,79,30.23,10.0,NE,4.6,-,N/A,,Clear,50,2012-11-04 03:55:00
11:55 PM,32.0,28.9,88,30.23,10.0,ENE,3.5,-,N/A,,Clear,60,2012-11-04 04:55:00